Year,Month,Day,Hour,Minute,Value (Times are PST for temperature in C)
2017,12,19,00,00,3.70
2017,12,19,00,01,3.70
2017,12,19,00,02,3.70
2017,12,19,00,03,3.70
2017,12,19,00,04,3.70
2017,12,19,00,05,3.70
2017,12,19,00,06,3.70
2017,12,19,00,07,3.70
2017,12,19,00,08,3.60
2017,12,19,00,09,3.60
2017,12,19,00,10,3.60
2017,12,19,00,11,3.60
2017,12,19,00,12,3.60
2017,12,19,00,13,3.60
2017,12,19,00,14,3.60
2017,12,19,00,15,3.60
2017,12,19,00,16,3.60
2017,12,19,00,17,3.60
2017,12,19,00,18,3.60
2017,12,19,00,19,3.60
2017,12,19,00,20,3.60
2017,12,19,00,21,3.60
2017,12,19,00,22,3.60
2017,12,19,00,23,3.60
2017,12,19,00,24,3.60
2017,12,19,00,25,3.60
2017,12,19,00,26,3.60
2017,12,19,00,27,3.60
2017,12,19,00,28,3.60
2017,12,19,00,29,3.60
2017,12,19,00,30,3.60
2017,12,19,00,31,3.60
2017,12,19,00,32,3.60
2017,12,19,00,33,3.60
2017,12,19,00,34,3.60
2017,12,19,00,35,3.60
2017,12,19,00,36,3.60
2017,12,19,00,37,3.60
2017,12,19,00,38,3.60
2017,12,19,00,39,3.60
2017,12,19,00,40,3.60
2017,12,19,00,41,3.60
2017,12,19,00,42,3.60
2017,12,19,00,43,3.60
2017,12,19,00,44,3.60
2017,12,19,00,45,3.50
2017,12,19,00,46,3.60
2017,12,19,00,47,3.60
2017,12,19,00,48,3.60
2017,12,19,00,49,3.60
2017,12,19,00,50,3.60
2017,12,19,00,51,3.60
2017,12,19,00,52,3.60
2017,12,19,00,53,3.60
2017,12,19,00,54,3.60
2017,12,19,00,55,3.60
2017,12,19,00,56,3.60
2017,12,19,00,57,3.60
2017,12,19,00,58,3.60
2017,12,19,00,59,3.60
2017,12,19,01,00,3.60
2017,12,19,01,01,3.60
2017,12,19,01,02,3.60
2017,12,19,01,03,3.60
2017,12,19,01,04,3.60
2017,12,19,01,05,3.60
2017,12,19,01,06,3.60
2017,12,19,01,07,3.60
2017,12,19,01,08,3.50
2017,12,19,01,09,3.50
2017,12,19,01,10,3.50
2017,12,19,01,11,3.50
2017,12,19,01,12,3.50
2017,12,19,01,13,3.50
2017,12,19,01,14,3.50
2017,12,19,01,15,3.50
2017,12,19,01,16,3.50
2017,12,19,01,17,3.50
2017,12,19,01,18,3.40
2017,12,19,01,19,3.40
2017,12,19,01,20,3.40
2017,12,19,01,21,3.40
2017,12,19,01,22,3.40
2017,12,19,01,23,3.40
2017,12,19,01,24,3.40
2017,12,19,01,25,3.40
2017,12,19,01,26,3.40
2017,12,19,01,27,3.40
2017,12,19,01,28,3.40
2017,12,19,01,29,3.40
2017,12,19,01,30,3.40
2017,12,19,01,31,3.40
2017,12,19,01,32,3.40
2017,12,19,01,33,3.40
2017,12,19,01,34,3.40
2017,12,19,01,35,3.40
2017,12,19,01,36,3.40
2017,12,19,01,37,3.40
2017,12,19,01,38,3.40
2017,12,19,01,39,3.40
2017,12,19,01,40,3.40
2017,12,19,01,41,3.40
2017,12,19,01,42,3.40
2017,12,19,01,43,3.40
2017,12,19,01,44,3.40
2017,12,19,01,45,3.40
2017,12,19,01,46,3.40
2017,12,19,01,47,3.40
2017,12,19,01,48,3.40
2017,12,19,01,49,3.40
2017,12,19,01,50,3.40
2017,12,19,01,51,3.40
2017,12,19,01,52,3.40
2017,12,19,01,53,3.40
2017,12,19,01,54,3.40
2017,12,19,01,55,3.40
2017,12,19,01,56,3.40
2017,12,19,01,57,3.40
2017,12,19,01,58,3.40
2017,12,19,01,59,3.40
2017,12,19,02,00,3.40
2017,12,19,02,01,3.40
2017,12,19,02,02,3.40
2017,12,19,02,03,3.40
2017,12,19,02,04,3.40
2017,12,19,02,05,3.40
2017,12,19,02,06,3.40
2017,12,19,02,07,3.40
2017,12,19,02,08,3.40
2017,12,19,02,09,3.40
2017,12,19,02,10,3.40
2017,12,19,02,11,3.40
2017,12,19,02,12,3.40
2017,12,19,02,13,3.40
2017,12,19,02,14,3.40
2017,12,19,02,15,3.40
2017,12,19,02,16,3.40
2017,12,19,02,17,3.40
2017,12,19,02,18,3.40
2017,12,19,02,19,3.40
2017,12,19,02,20,3.40
2017,12,19,02,21,3.40
2017,12,19,02,22,3.40
2017,12,19,02,23,3.40
2017,12,19,02,24,3.30
2017,12,19,02,25,3.30
2017,12,19,02,26,3.20
2017,12,19,02,27,3.20
2017,12,19,02,28,3.20
2017,12,19,02,29,3.10
2017,12,19,02,30,3.10
2017,12,19,02,31,3.10
2017,12,19,02,32,3.10
2017,12,19,02,33,3.10
2017,12,19,02,34,3.10
2017,12,19,02,35,3.10
2017,12,19,02,36,3.10
2017,12,19,02,37,3.10
2017,12,19,02,38,3.10
2017,12,19,02,39,3.10
2017,12,19,02,40,3.00
2017,12,19,02,41,2.90
2017,12,19,02,42,2.90
2017,12,19,02,43,2.80
2017,12,19,02,44,2.80
2017,12,19,02,45,2.80
2017,12,19,02,46,2.70
2017,12,19,02,47,2.70
2017,12,19,02,48,2.70
2017,12,19,02,49,2.70
2017,12,19,02,50,2.70
2017,12,19,02,51,2.70
2017,12,19,02,52,2.70
2017,12,19,02,53,2.70
2017,12,19,02,54,2.60
2017,12,19,02,55,2.60
2017,12,19,02,56,2.60
2017,12,19,02,57,2.60
2017,12,19,02,58,2.60
2017,12,19,02,59,2.60
2017,12,19,03,00,2.60
2017,12,19,03,01,2.60
2017,12,19,03,02,2.60
2017,12,19,03,03,2.60
2017,12,19,03,04,2.50
2017,12,19,03,05,2.50
2017,12,19,03,06,2.50
2017,12,19,03,07,2.50
2017,12,19,03,08,2.50
2017,12,19,03,09,2.50
2017,12,19,03,10,2.50
2017,12,19,03,11,2.50
2017,12,19,03,12,2.50
2017,12,19,03,13,2.50
2017,12,19,03,14,2.40
2017,12,19,03,15,2.40
2017,12,19,03,16,2.40
2017,12,19,03,17,2.40
2017,12,19,03,18,2.40
2017,12,19,03,19,2.40
2017,12,19,03,20,2.40
2017,12,19,03,21,2.40
2017,12,19,03,22,2.40
2017,12,19,03,23,2.40
2017,12,19,03,24,2.40
2017,12,19,03,25,2.30
2017,12,19,03,26,2.30
2017,12,19,03,27,2.30
2017,12,19,03,28,2.30
2017,12,19,03,29,2.30
2017,12,19,03,30,2.30
2017,12,19,03,31,2.30
2017,12,19,03,32,2.30
2017,12,19,03,33,2.30
2017,12,19,03,34,2.20
2017,12,19,03,35,2.20
2017,12,19,03,36,2.20
2017,12,19,03,37,2.20
2017,12,19,03,38,2.20
2017,12,19,03,39,2.20
2017,12,19,03,40,2.20
2017,12,19,03,41,2.10
2017,12,19,03,42,2.10
2017,12,19,03,43,2.10
2017,12,19,03,44,2.10
2017,12,19,03,45,2.10
2017,12,19,03,46,2.10
2017,12,19,03,47,2.10
2017,12,19,03,48,2.00
2017,12,19,03,49,2.00
2017,12,19,03,50,1.90
2017,12,19,03,51,1.90
2017,12,19,03,52,1.90
2017,12,19,03,53,1.90
2017,12,19,03,54,1.80
2017,12,19,03,55,1.80
2017,12,19,03,56,1.80
2017,12,19,03,57,1.80
2017,12,19,03,58,1.80
2017,12,19,03,59,1.70
2017,12,19,04,00,1.70
2017,12,19,04,01,1.70
2017,12,19,04,02,1.70
2017,12,19,04,03,1.70
2017,12,19,04,04,1.70
2017,12,19,04,05,1.70
2017,12,19,04,06,1.60
2017,12,19,04,07,1.60
2017,12,19,04,08,1.60
2017,12,19,04,09,1.60
2017,12,19,04,10,1.60
2017,12,19,04,11,1.50
2017,12,19,04,12,1.50
2017,12,19,04,13,1.50
2017,12,19,04,14,1.50
2017,12,19,04,15,1.40
2017,12,19,04,16,1.40
2017,12,19,04,17,1.40
2017,12,19,04,18,1.40
2017,12,19,04,19,1.40
2017,12,19,04,20,1.30
2017,12,19,04,21,1.30
2017,12,19,04,22,1.30
2017,12,19,04,23,1.30
2017,12,19,04,24,1.30
2017,12,19,04,25,1.30
2017,12,19,04,26,1.30
2017,12,19,04,27,1.20
2017,12,19,04,28,1.20
2017,12,19,04,29,1.20
2017,12,19,04,30,1.20
2017,12,19,04,31,1.20
2017,12,19,04,32,1.20
2017,12,19,04,33,1.20
2017,12,19,04,34,1.10
2017,12,19,04,35,1.10
2017,12,19,04,36,1.10
2017,12,19,04,37,1.10
2017,12,19,04,38,1.10
2017,12,19,04,39,1.10
2017,12,19,04,40,1.00
2017,12,19,04,41,1.00
2017,12,19,04,42,1.00
2017,12,19,04,43,1.00
2017,12,19,04,44,1.00
2017,12,19,04,45,1.00
2017,12,19,04,46,0.90
2017,12,19,04,47,0.90
2017,12,19,04,48,0.90
2017,12,19,04,49,0.90
2017,12,19,04,50,0.90
2017,12,19,04,51,0.90
2017,12,19,04,52,0.90
2017,12,19,04,53,0.90
2017,12,19,04,54,0.90
2017,12,19,04,55,0.90
2017,12,19,04,56,0.80
2017,12,19,04,57,0.80
2017,12,19,04,58,0.80
2017,12,19,04,59,0.80
2017,12,19,05,00,0.80
2017,12,19,05,01,0.80
2017,12,19,05,02,0.80
2017,12,19,05,03,0.80
2017,12,19,05,04,0.80
2017,12,19,05,05,0.80
2017,12,19,05,06,0.80
2017,12,19,05,07,0.80
2017,12,19,05,08,0.80
2017,12,19,05,09,0.70
2017,12,19,05,10,0.70
2017,12,19,05,11,0.70
2017,12,19,05,12,0.70
2017,12,19,05,13,0.70
2017,12,19,05,14,0.70
2017,12,19,05,15,0.70
2017,12,19,05,16,0.70
2017,12,19,05,17,0.70
2017,12,19,05,18,0.70
2017,12,19,05,19,0.70
2017,12,19,05,20,0.70
2017,12,19,05,21,0.70
2017,12,19,05,22,0.70
2017,12,19,05,23,0.70
2017,12,19,05,24,0.70
2017,12,19,05,25,0.70
2017,12,19,05,26,0.70
2017,12,19,05,27,0.70
2017,12,19,05,28,0.70
2017,12,19,05,29,0.70
2017,12,19,05,30,0.70
2017,12,19,05,31,0.70
2017,12,19,05,32,0.70
2017,12,19,05,33,0.70
2017,12,19,05,34,0.70
2017,12,19,05,35,0.70
2017,12,19,05,36,0.70
2017,12,19,05,37,0.70
2017,12,19,05,38,0.70
2017,12,19,05,39,0.70
2017,12,19,05,40,0.70
2017,12,19,05,41,0.70
2017,12,19,05,42,0.70
2017,12,19,05,43,0.70
2017,12,19,05,44,0.70
2017,12,19,05,45,0.70
2017,12,19,05,46,0.70
2017,12,19,05,47,0.70
2017,12,19,05,48,0.70
2017,12,19,05,49,0.70
2017,12,19,05,50,0.70
2017,12,19,05,51,0.70
2017,12,19,05,52,0.70
2017,12,19,05,53,0.70
2017,12,19,05,54,0.70
2017,12,19,05,55,0.70
2017,12,19,05,56,0.70
2017,12,19,05,57,0.70
2017,12,19,05,58,0.70
2017,12,19,05,59,0.70
2017,12,19,06,00,0.70
2017,12,19,06,01,0.70
2017,12,19,06,02,0.70
2017,12,19,06,03,0.60
2017,12,19,06,04,0.60
2017,12,19,06,05,0.60
2017,12,19,06,06,0.60
2017,12,19,06,07,0.60
2017,12,19,06,08,0.60
2017,12,19,06,09,0.60
2017,12,19,06,10,0.60
2017,12,19,06,11,0.60
2017,12,19,06,12,0.60
2017,12,19,06,13,0.60
2017,12,19,06,14,0.60
2017,12,19,06,15,0.60
2017,12,19,06,16,0.60
2017,12,19,06,17,0.60
2017,12,19,06,18,0.60
2017,12,19,06,19,0.60
2017,12,19,06,20,0.60
2017,12,19,06,21,0.60
2017,12,19,06,22,0.60
2017,12,19,06,23,0.60
2017,12,19,06,24,0.60
2017,12,19,06,25,0.60
2017,12,19,06,26,0.60
2017,12,19,06,27,0.60
2017,12,19,06,28,0.60
2017,12,19,06,29,0.60
2017,12,19,06,30,0.60
2017,12,19,06,31,0.60
2017,12,19,06,32,0.60
2017,12,19,06,33,0.60
2017,12,19,06,34,0.60
2017,12,19,06,35,0.60
2017,12,19,06,36,0.60
2017,12,19,06,37,0.60
2017,12,19,06,38,0.60
2017,12,19,06,39,0.60
2017,12,19,06,40,0.60
2017,12,19,06,41,0.60
2017,12,19,06,42,0.60
2017,12,19,06,43,0.60
2017,12,19,06,44,0.60
2017,12,19,06,45,0.60
2017,12,19,06,46,0.60
2017,12,19,06,47,0.60
2017,12,19,06,48,0.60
2017,12,19,06,49,0.70
2017,12,19,06,50,0.70
2017,12,19,06,51,0.70
2017,12,19,06,52,0.70
2017,12,19,06,53,0.70
2017,12,19,06,54,0.70
2017,12,19,06,55,0.70
2017,12,19,06,56,0.70
2017,12,19,06,57,0.80
2017,12,19,06,58,0.70
2017,12,19,06,59,0.70
2017,12,19,07,00,0.80
2017,12,19,07,01,0.80
2017,12,19,07,02,0.80
2017,12,19,07,03,0.80
2017,12,19,07,04,0.80
2017,12,19,07,05,0.80
2017,12,19,07,06,0.80
2017,12,19,07,07,0.80
2017,12,19,07,08,0.80
2017,12,19,07,09,0.80
2017,12,19,07,10,0.80
2017,12,19,07,11,0.80
2017,12,19,07,12,0.80
2017,12,19,07,13,0.80
2017,12,19,07,14,0.80
2017,12,19,07,15,0.80
2017,12,19,07,16,0.80
2017,12,19,07,17,0.80
2017,12,19,07,18,0.80
2017,12,19,07,19,0.80
2017,12,19,07,20,0.80
2017,12,19,07,21,0.80
2017,12,19,07,22,0.80
2017,12,19,07,23,0.80
2017,12,19,07,24,0.80
2017,12,19,07,25,0.80
2017,12,19,07,26,0.80
2017,12,19,07,27,0.80
2017,12,19,07,28,0.80
2017,12,19,07,29,0.80
2017,12,19,07,30,0.80
2017,12,19,07,31,0.80
2017,12,19,07,32,0.80
2017,12,19,07,33,0.80
2017,12,19,07,34,0.80
2017,12,19,07,35,0.80
2017,12,19,07,36,0.80
2017,12,19,07,37,0.80
2017,12,19,07,38,0.80
2017,12,19,07,39,0.80
2017,12,19,07,40,0.80
2017,12,19,07,41,0.80
2017,12,19,07,42,0.70
2017,12,19,07,43,0.70
2017,12,19,07,44,0.80
2017,12,19,07,45,0.80
2017,12,19,07,46,0.80
2017,12,19,07,47,0.80
2017,12,19,07,48,0.80
2017,12,19,07,49,0.80
2017,12,19,07,50,0.80
2017,12,19,07,51,0.80
2017,12,19,07,52,0.80
2017,12,19,07,53,0.80
2017,12,19,07,54,0.80
2017,12,19,07,55,0.80
2017,12,19,07,56,0.80
2017,12,19,07,57,0.80
2017,12,19,07,58,0.80
2017,12,19,07,59,0.80
2017,12,19,08,00,0.80
2017,12,19,08,01,0.80
2017,12,19,08,02,0.80
2017,12,19,08,03,0.80
2017,12,19,08,04,0.80
2017,12,19,08,05,0.80
2017,12,19,08,06,0.80
2017,12,19,08,07,0.80
2017,12,19,08,08,0.80
2017,12,19,08,09,0.80
2017,12,19,08,10,0.80
2017,12,19,08,11,0.80
2017,12,19,08,12,0.80
2017,12,19,08,13,0.80
2017,12,19,08,14,0.80
2017,12,19,08,15,0.80
2017,12,19,08,16,0.80
2017,12,19,08,17,0.80
2017,12,19,08,18,0.80
2017,12,19,08,19,0.80
2017,12,19,08,20,0.80
2017,12,19,08,21,0.80
2017,12,19,08,22,0.80
2017,12,19,08,23,0.80
2017,12,19,08,24,0.80
2017,12,19,08,25,0.80
2017,12,19,08,26,0.80
2017,12,19,08,27,0.80
2017,12,19,08,28,0.80
2017,12,19,08,29,0.80
2017,12,19,08,30,0.80
2017,12,19,08,31,0.80
2017,12,19,08,32,0.80
2017,12,19,08,33,0.80
2017,12,19,08,34,0.80
2017,12,19,08,35,0.80
2017,12,19,08,36,0.80
2017,12,19,08,37,0.80
2017,12,19,08,38,0.80
2017,12,19,08,39,0.80
2017,12,19,08,40,0.80
2017,12,19,08,41,0.80
2017,12,19,08,42,0.80
2017,12,19,08,43,0.80
2017,12,19,08,44,0.80
2017,12,19,08,45,0.80
2017,12,19,08,46,0.80
2017,12,19,08,47,0.80
2017,12,19,08,48,0.80
2017,12,19,08,49,0.80
2017,12,19,08,50,0.80
2017,12,19,08,51,0.80
2017,12,19,08,52,0.80
2017,12,19,08,53,0.80
2017,12,19,08,54,0.80
2017,12,19,08,55,0.80
2017,12,19,08,56,0.80
2017,12,19,08,57,0.80
2017,12,19,08,58,0.80
2017,12,19,08,59,0.80
2017,12,19,09,00,0.80
2017,12,19,09,01,0.80
2017,12,19,09,02,0.80
2017,12,19,09,03,0.80
2017,12,19,09,04,0.80
2017,12,19,09,05,0.70
2017,12,19,09,06,0.70
2017,12,19,09,07,0.70
2017,12,19,09,08,0.70
2017,12,19,09,09,0.70
2017,12,19,09,10,0.70
2017,12,19,09,11,0.70
2017,12,19,09,12,0.70
2017,12,19,09,13,0.70
2017,12,19,09,14,0.70
2017,12,19,09,15,0.70
2017,12,19,09,16,0.70
2017,12,19,09,17,0.70
2017,12,19,09,18,0.70
2017,12,19,09,19,0.70
2017,12,19,09,20,0.70
2017,12,19,09,21,0.70
2017,12,19,09,22,0.70
2017,12,19,09,23,0.70
2017,12,19,09,24,0.70
2017,12,19,09,25,0.70
2017,12,19,09,26,0.70
2017,12,19,09,27,0.70
2017,12,19,09,28,0.70
2017,12,19,09,29,0.70
2017,12,19,09,30,0.70
2017,12,19,09,31,0.70
2017,12,19,09,32,0.70
2017,12,19,09,33,0.70
2017,12,19,09,34,0.70
2017,12,19,09,35,0.70
2017,12,19,09,36,0.70
2017,12,19,09,37,0.70
2017,12,19,09,38,0.70
2017,12,19,09,39,0.70
2017,12,19,09,40,0.70
2017,12,19,09,41,0.70
2017,12,19,09,42,0.70
2017,12,19,09,43,0.70
2017,12,19,09,44,0.70
2017,12,19,09,45,0.70
2017,12,19,09,46,0.70
2017,12,19,09,47,0.70
2017,12,19,09,48,0.70
2017,12,19,09,49,0.70
2017,12,19,09,50,0.70
2017,12,19,09,51,0.70
2017,12,19,09,52,0.70
2017,12,19,09,53,0.70
2017,12,19,09,54,0.70
2017,12,19,09,55,0.70
2017,12,19,09,56,0.70
2017,12,19,09,57,0.80
2017,12,19,09,58,0.80
2017,12,19,09,59,0.80
2017,12,19,10,00,0.80
2017,12,19,10,01,0.70
2017,12,19,10,02,0.70
2017,12,19,10,03,0.70
2017,12,19,10,04,0.80
2017,12,19,10,05,0.80
2017,12,19,10,06,0.80
2017,12,19,10,07,0.80
2017,12,19,10,08,0.80
2017,12,19,10,09,0.80
2017,12,19,10,10,0.80
2017,12,19,10,11,0.80
2017,12,19,10,12,0.80
2017,12,19,10,13,0.80
2017,12,19,10,14,0.90
2017,12,19,10,15,0.90
2017,12,19,10,16,0.90
2017,12,19,10,17,0.90
2017,12,19,10,18,0.90
2017,12,19,10,19,0.90
2017,12,19,10,20,0.90
2017,12,19,10,21,0.90
2017,12,19,10,22,1.00
2017,12,19,10,23,1.00
2017,12,19,10,24,1.00
2017,12,19,10,25,1.00
2017,12,19,10,26,1.00
2017,12,19,10,27,1.00
2017,12,19,10,28,1.00
2017,12,19,10,29,1.00
2017,12,19,10,30,1.00
2017,12,19,10,31,1.00
2017,12,19,10,32,1.00
2017,12,19,10,33,1.00
2017,12,19,10,34,1.00
2017,12,19,10,35,1.00
2017,12,19,10,36,0.90
2017,12,19,10,37,0.90
2017,12,19,10,38,0.90
2017,12,19,10,39,0.90
2017,12,19,10,40,0.90
2017,12,19,10,41,0.90
2017,12,19,10,42,0.90
2017,12,19,10,43,0.90
2017,12,19,13,30,2.60
2017,12,19,13,31,2.60
2017,12,19,13,32,2.60
2017,12,19,13,33,2.60
2017,12,19,13,34,2.60
2017,12,19,13,35,2.50
2017,12,19,13,36,2.50
2017,12,19,13,37,2.50
2017,12,19,13,38,2.40
2017,12,19,13,39,2.40
2017,12,19,13,40,2.40
2017,12,19,13,41,2.30
2017,12,19,13,42,2.30
2017,12,19,13,43,2.30
2017,12,19,13,44,2.30
2017,12,19,13,45,2.30
2017,12,19,13,46,2.20
2017,12,19,13,47,2.20
2017,12,19,13,48,2.20
2017,12,19,13,49,2.20
2017,12,19,13,50,2.20
2017,12,19,13,51,2.20
2017,12,19,13,52,2.20
2017,12,19,13,53,2.20
2017,12,19,13,54,2.20
2017,12,19,13,55,2.20
2017,12,19,13,56,2.20
2017,12,19,13,57,2.10
2017,12,19,13,58,2.10
2017,12,19,13,59,2.10
2017,12,19,14,00,2.10
2017,12,19,14,01,2.10
2017,12,19,14,02,2.10
2017,12,19,14,03,2.10
2017,12,19,14,04,2.10
2017,12,19,14,05,2.00
2017,12,19,14,06,2.00
2017,12,19,14,07,2.00
2017,12,19,14,08,2.00
2017,12,19,14,09,2.00
2017,12,19,14,10,2.00
2017,12,19,14,11,2.00
2017,12,19,14,12,2.00
2017,12,19,14,13,2.00
2017,12,19,14,14,2.00
2017,12,19,14,15,2.00
2017,12,19,14,16,2.00
2017,12,19,14,17,2.00
2017,12,19,14,18,2.00
2017,12,19,14,19,2.00
2017,12,19,14,20,2.00
2017,12,19,14,21,2.00
2017,12,19,14,22,2.00
2017,12,19,14,23,2.00
2017,12,19,14,24,2.00
2017,12,19,14,25,2.00
2017,12,19,14,26,2.00
2017,12,19,14,27,2.00
2017,12,19,14,28,2.00
2017,12,19,14,29,2.00
2017,12,19,14,30,2.00
2017,12,19,14,31,2.00
2017,12,19,14,32,2.00
2017,12,19,14,33,2.00
2017,12,19,14,34,2.00
2017,12,19,14,35,2.00
2017,12,19,14,36,2.00
2017,12,19,14,37,2.00
2017,12,19,14,38,1.90
2017,12,19,14,39,1.90
2017,12,19,14,40,1.90
2017,12,19,14,41,1.90
2017,12,19,14,42,1.90
2017,12,19,14,43,1.90
2017,12,19,14,44,1.90
2017,12,19,14,45,1.90
2017,12,19,14,46,1.90
2017,12,19,14,47,1.90
2017,12,19,14,48,1.90
2017,12,19,14,49,1.90
2017,12,19,14,50,1.90
2017,12,19,14,51,1.90
2017,12,19,14,52,1.90
2017,12,19,14,53,1.90
2017,12,19,14,54,1.90
2017,12,19,14,55,1.90
2017,12,19,14,56,1.90
2017,12,19,14,57,1.80
2017,12,19,14,58,1.80
2017,12,19,14,59,1.80
2017,12,19,15,00,1.80
2017,12,19,15,01,1.80
2017,12,19,15,02,1.80
2017,12,19,15,03,1.80
2017,12,19,15,04,1.80
2017,12,19,15,05,1.80
2017,12,19,15,06,1.80
2017,12,19,15,07,1.80
2017,12,19,15,08,1.80
2017,12,19,15,09,1.70
2017,12,19,15,10,1.70
2017,12,19,15,11,1.70
2017,12,19,15,12,1.70
2017,12,19,15,13,1.70
2017,12,19,15,14,1.70
2017,12,19,15,15,1.70
2017,12,19,15,16,1.70
2017,12,19,15,17,1.70
2017,12,19,15,18,1.70
2017,12,19,15,19,1.70
2017,12,19,15,20,1.70
2017,12,19,15,21,1.60
2017,12,19,15,22,1.60
2017,12,19,15,23,1.60
2017,12,19,15,24,1.60
2017,12,19,15,25,1.60
2017,12,19,15,26,1.60
2017,12,19,15,27,1.60
2017,12,19,15,28,1.60
2017,12,19,15,29,1.60
2017,12,19,15,30,1.60
2017,12,19,15,31,1.60
2017,12,19,15,32,1.50
2017,12,19,15,33,1.50
2017,12,19,15,34,1.50
2017,12,19,15,35,1.50
2017,12,19,15,36,1.50
2017,12,19,15,37,1.50
2017,12,19,15,38,1.50
2017,12,19,15,39,1.50
2017,12,19,15,40,1.50
2017,12,19,15,41,1.50
2017,12,19,15,42,1.40
2017,12,19,15,43,1.40
2017,12,19,15,44,1.40
2017,12,19,15,45,1.40
2017,12,19,15,46,1.40
2017,12,19,15,47,1.40
2017,12,19,15,48,1.40
2017,12,19,15,49,1.40
2017,12,19,15,50,1.40
2017,12,19,15,51,1.40
2017,12,19,15,52,1.40
2017,12,19,15,53,1.40
2017,12,19,15,54,1.40
2017,12,19,15,55,1.40
2017,12,19,15,56,1.40
2017,12,19,15,57,1.30
2017,12,19,15,58,1.30
2017,12,19,15,59,1.30
2017,12,19,16,00,1.30
2017,12,19,16,01,1.30
2017,12,19,16,02,1.30
2017,12,19,16,03,1.30
2017,12,19,16,04,1.30
2017,12,19,16,05,1.30
2017,12,19,16,06,1.30
2017,12,19,16,07,1.30
2017,12,19,16,08,1.30
2017,12,19,16,09,1.30
2017,12,19,16,10,1.30
2017,12,19,16,11,1.20
2017,12,19,16,12,1.20
2017,12,19,16,13,1.20
2017,12,19,16,14,1.20
2017,12,19,16,15,1.20
2017,12,19,16,16,1.20
2017,12,19,16,17,1.20
2017,12,19,16,18,1.20
2017,12,19,16,19,1.20
2017,12,19,16,20,1.20
2017,12,19,16,21,1.20
2017,12,19,16,22,1.20
2017,12,19,16,23,1.20
2017,12,19,16,24,1.20
2017,12,19,16,25,1.20
2017,12,19,16,26,1.20
2017,12,19,16,27,1.20
2017,12,19,16,28,1.20
2017,12,19,16,29,1.20
2017,12,19,16,30,1.20
2017,12,19,16,31,1.20
2017,12,19,16,32,1.20
2017,12,19,16,33,1.20
2017,12,19,16,34,1.20
2017,12,19,16,35,1.20
2017,12,19,16,36,1.20
2017,12,19,16,37,1.20
2017,12,19,16,38,1.20
2017,12,19,16,39,1.20
2017,12,19,16,40,1.20
2017,12,19,16,41,1.20
2017,12,19,16,42,1.20
2017,12,19,16,43,1.20
2017,12,19,16,44,1.20
2017,12,19,16,45,1.20
2017,12,19,16,46,1.20
2017,12,19,16,47,1.20
2017,12,19,16,48,1.20
2017,12,19,16,49,1.20
2017,12,19,16,50,1.20
2017,12,19,16,51,1.20
2017,12,19,16,52,1.20
2017,12,19,16,53,1.20
2017,12,19,16,54,1.20
2017,12,19,16,55,1.20
2017,12,19,16,56,1.20
2017,12,19,16,57,1.20
2017,12,19,16,58,1.20
2017,12,19,16,59,1.20
2017,12,19,17,00,1.20
2017,12,19,17,01,1.20
2017,12,19,17,02,1.20
2017,12,19,17,03,1.20
2017,12,19,17,04,1.20
2017,12,19,17,05,1.20
2017,12,19,17,06,1.20
2017,12,19,17,07,1.20
2017,12,19,17,08,1.20
2017,12,19,17,09,1.20
2017,12,19,17,10,1.20
2017,12,19,17,11,1.20
2017,12,19,17,12,1.20
2017,12,19,17,13,1.20
2017,12,19,17,14,1.20
2017,12,19,17,15,1.20
2017,12,19,17,16,1.20
2017,12,19,17,17,1.20
2017,12,19,17,18,1.20
2017,12,19,17,19,1.20
2017,12,19,17,20,1.20
2017,12,19,17,21,1.20
2017,12,19,17,22,1.20
2017,12,19,17,23,1.20
2017,12,19,17,24,1.20
2017,12,19,17,25,1.20
2017,12,19,17,26,1.20
2017,12,19,17,27,1.20
2017,12,19,17,28,1.20
2017,12,19,17,29,1.20
2017,12,19,17,30,1.20
2017,12,19,17,31,1.20
2017,12,19,17,32,1.20
2017,12,19,17,33,1.30
2017,12,19,17,34,1.30
2017,12,19,17,35,1.40
2017,12,19,17,36,1.40
2017,12,19,17,37,1.50
2017,12,19,17,38,1.50
2017,12,19,17,39,1.60
2017,12,19,17,40,1.70
2017,12,19,17,41,1.80
2017,12,19,17,42,1.80
2017,12,19,17,43,1.90
2017,12,19,17,44,1.90
2017,12,19,17,45,1.90
2017,12,19,17,46,2.00
2017,12,19,17,47,2.00
2017,12,19,17,48,2.00
2017,12,19,17,49,2.10
2017,12,19,17,50,2.10
2017,12,19,17,51,2.10
2017,12,19,17,52,2.10
2017,12,19,17,53,2.10
2017,12,19,17,54,2.20
2017,12,19,17,55,2.10
2017,12,19,17,56,2.10
2017,12,19,17,57,2.10
2017,12,19,17,58,2.10
2017,12,19,17,59,2.10
2017,12,19,18,00,2.10
2017,12,19,18,01,2.10
2017,12,19,18,02,2.10
2017,12,19,18,03,2.10
2017,12,19,18,04,2.20
2017,12,19,18,05,2.20
2017,12,19,18,06,2.20
2017,12,19,18,07,2.20
2017,12,19,18,08,2.20
2017,12,19,18,09,2.30
2017,12,19,18,10,2.30
2017,12,19,18,11,2.30
2017,12,19,18,12,2.30
2017,12,19,18,13,2.20
2017,12,19,18,14,2.20
2017,12,19,18,15,2.20
2017,12,19,18,16,2.20
2017,12,19,18,17,2.20
2017,12,19,18,18,2.10
2017,12,19,18,19,2.10
2017,12,19,18,20,2.10
2017,12,19,18,21,2.10
2017,12,19,18,22,2.10
2017,12,19,18,23,2.10
2017,12,19,18,24,2.10
2017,12,19,18,25,2.10
2017,12,19,18,26,2.10
2017,12,19,18,27,2.10
2017,12,19,18,28,2.10
2017,12,19,18,29,2.10
2017,12,19,18,30,2.00
2017,12,19,18,31,2.00
2017,12,19,18,32,1.90
2017,12,19,18,33,1.80
2017,12,19,18,34,1.80
2017,12,19,18,35,1.70
2017,12,19,18,36,1.70
2017,12,19,18,37,1.60
2017,12,19,18,38,1.60
2017,12,19,18,39,1.60
2017,12,19,18,40,1.60
2017,12,19,18,41,1.60
2017,12,19,18,42,1.60
2017,12,19,18,43,1.50
2017,12,19,18,44,1.50
2017,12,19,18,45,1.50
2017,12,19,18,46,1.50
2017,12,19,18,47,1.40
2017,12,19,18,48,1.50
2017,12,19,18,49,1.50
2017,12,19,18,50,1.50
2017,12,19,18,51,1.50
2017,12,19,18,52,1.50
2017,12,19,18,53,1.50
2017,12,19,18,54,1.60
2017,12,19,18,55,1.50
2017,12,19,18,56,1.50
2017,12,19,18,57,1.50
2017,12,19,18,58,1.50
2017,12,19,18,59,1.50
2017,12,19,19,00,1.60
2017,12,19,19,01,1.60
2017,12,19,19,02,1.70
2017,12,19,19,03,1.70
2017,12,19,19,04,1.80
2017,12,19,19,05,1.90
2017,12,19,19,06,1.90
2017,12,19,19,07,2.00
2017,12,19,19,08,2.10
2017,12,19,19,09,2.20
2017,12,19,19,10,2.20
2017,12,19,19,11,2.30
2017,12,19,19,12,2.30
2017,12,19,19,13,2.30
2017,12,19,19,14,2.30
2017,12,19,19,15,2.30
2017,12,19,19,16,2.30
2017,12,19,19,17,2.30
2017,12,19,19,18,2.30
2017,12,19,19,19,2.30
2017,12,19,19,20,2.30
2017,12,19,19,21,2.30
2017,12,19,19,22,2.20
2017,12,19,19,23,2.20
2017,12,19,19,24,2.20
2017,12,19,19,25,2.20
2017,12,19,19,26,2.30
2017,12,19,19,27,2.40
2017,12,19,19,28,2.40
2017,12,19,19,29,2.40
2017,12,19,19,30,2.50
2017,12,19,19,31,2.50
2017,12,19,19,32,2.60
2017,12,19,19,33,2.60
2017,12,19,19,34,2.60
2017,12,19,19,35,2.60
2017,12,19,19,36,2.60
2017,12,19,19,37,2.60
2017,12,19,19,38,2.70
2017,12,19,19,39,2.70
2017,12,19,19,40,2.70
2017,12,19,19,41,2.70
2017,12,19,19,42,2.60
2017,12,19,19,43,2.60
2017,12,19,19,44,2.60
2017,12,19,19,45,2.60
2017,12,19,19,46,2.50
2017,12,19,19,47,2.50
2017,12,19,19,48,2.40
2017,12,19,19,49,2.30
2017,12,19,19,50,2.30
2017,12,19,19,51,2.20
2017,12,19,19,52,2.20
2017,12,19,19,53,2.10
2017,12,19,19,54,2.00
2017,12,19,19,55,2.00
2017,12,19,19,56,1.90
2017,12,19,19,57,1.80
2017,12,19,19,58,1.80
2017,12,19,19,59,1.70
2017,12,19,20,00,1.70
2017,12,19,20,01,1.60
2017,12,19,20,02,1.60
2017,12,19,20,03,1.50
2017,12,19,20,04,1.50
2017,12,19,20,05,1.40
2017,12,19,20,06,1.40
2017,12,19,20,07,1.40
2017,12,19,20,08,1.40
2017,12,19,20,09,1.40
2017,12,19,20,10,1.30
2017,12,19,20,11,1.30
2017,12,19,20,12,1.30
2017,12,19,20,13,1.30
2017,12,19,20,14,1.40
2017,12,19,20,15,1.40
2017,12,19,20,16,1.40
2017,12,19,20,17,1.40
2017,12,19,20,18,1.40
2017,12,19,20,19,1.40
2017,12,19,20,20,1.40
2017,12,19,20,21,1.40
2017,12,19,20,22,1.40
2017,12,19,20,23,1.40
2017,12,19,20,24,1.40
2017,12,19,20,25,1.30
2017,12,19,20,26,1.30
2017,12,19,20,27,1.30
2017,12,19,20,28,1.30
2017,12,19,20,29,1.20
2017,12,19,20,30,1.20
2017,12,19,20,31,1.20
2017,12,19,20,32,1.20
2017,12,19,20,33,1.20
2017,12,19,20,34,1.20
2017,12,19,20,35,1.20
2017,12,19,20,36,1.10
2017,12,19,20,37,1.20
2017,12,19,20,38,1.20
2017,12,19,20,39,1.20
2017,12,19,20,40,1.20
2017,12,19,20,41,1.20
2017,12,19,20,42,1.20
2017,12,19,20,43,1.20
2017,12,19,20,44,1.20
2017,12,19,20,45,1.20
2017,12,19,20,46,1.20
2017,12,19,20,47,1.20
2017,12,19,20,48,1.20
2017,12,19,20,49,1.20
2017,12,19,20,50,1.20
2017,12,19,20,51,1.20
2017,12,19,20,52,1.20